Location: Newark
(41.0400°S, 62.7845°W)
Time: 09:18:20
(UTC+00:00)

Transit 2A - Pass Details

Date: 02 December 2021
Orbit: 591 x 967 km, 66.7° (Epoch: 19 January)

Event Time Altitude Azimuth Distance (km) Brightness Sun altitude
Rises 15:38:40 0° 356° (N) 3,264 9.5 70.4°
Reaches altitude 10° 15:41:22 10° 5° (N) 2,278 8.9 70.6°
Maximum altitude 15:45:57 33° 68° (ENE) 1,190 7.7 70.8°
Drops below altitude 10° 15:50:11 10° 131° (SE) 2,102 8.3 70.9°
Sets 15:52:34 0° 140° (SE) 2,975 8.9 70.9°
